RH
25 23 21 22 21 20 19 17 15 12 12 15 25 27 25 26 24 23 22 19 17 17 16 15 16 14 13 12 11 10 10 9 9 9 8 8 8 8 8 9 12 16 16 26 24
20 19 19 19 17 15 13 12 11 12 14 19 26 30 30 28 26 25 22 19 18 16 16 16 16 15 13 12 11 11 10 9 9 8 7 6 6 6 7 8 11 16 20 30 32
12 12 12 12 12 12 14 13 12 14 15 16 22 31 33 30 26 22 21 18 19 18 18 17 17 14 12 11 11 10 10 10 8 7 6 6 6 5 6 6 15 20 44 49 51
11 13 15 15 14 15 15 15 14 15 16 18 26 33 34 28 24 22 21 21 20 20 19 19 16 12 12 11 11 10 10 8 8 7 6 5 5 5 7 8 29 30 43 83 65
17 16 17 20 23 23 20 17 17 18 19 22 32 36 33 28 26 27 25 23 22 21 22 18 16 14 13 13 12 11 10 9 8 7 5 4 5 12 16 24 35 31 42 60 89
32 36 35 35 32 28 26 24 25 24 28 32 36 36 33 30 29 27 25 24 24 24 20 19 18 16 14 14 13 11 10 9 7 6 4 4 13 100 70 100 97 67 69 83 94
44 40 38 37 35 33 32 39 45 49 47 42 39 36 34 31 28 26 25 27 27 24 21 19 18 17 16 14 12 12 10 8 6 6 9 15 48 100 96 94 98 100 100 100 100
45 40 35 37 36 36 51 60 54 49 45 43 40 37 31 28 28 28 30 28 25 23 20 20 21 20 16 14 14 12 10 7 8 16 43 60 62 84 96 94 95 100 100 100 100
40 42 35 37 41 54 66 62 55 51 49 44 39 32 29 28 34 33 31 27 25 23 23 22 22 18 16 17 14 13 8 5 12 41 66 89 72 93 73 85 80 91 94 96 98
41 41 40 48 64 74 72 64 58 48 34 32 30 30 34 36 37 35 31 28 26 25 23 24 21 20 20 18 14 10 6 7 13 35 69 73 64 89 98 96 86 80 96 98 98
38 35 42 62 85 84 73 62 53 39 27 26 26 28 38 41 40 37 33 31 30 30 30 25 24 24 21 16 12 9 7 7 27 49 64 77 77 100 100 100 100 100 100 100 99
37 31 39 64 76 81 69 58 52 39 26 20 24 37 42 44 41 39 38 35 34 35 32 28 26 26 21 15 10 9 8 10 29 56 72 77 100 99 100 98 88 87 90 88 86
32 33 34 64 71 72 64 58 50 31 18 27 40 46 49 47 43 42 39 36 37 38 33 30 28 26 20 13 10 11 9 13 25 62 76 71 98 94 87 91 88 94 100 93 93
23 24 26 45 60 64 56 53 40 18 43 48 52 60 56 52 51 47 44 42 42 41 35 31 30 27 18 13 11 11 15 20 23 37 56 62 66 86 100 97 98 100 100 100 100
22 25 28 30 52 61 48 46 18 26 48 52 58 59 60 62 56 52 46 46 45 40 36 33 33 27 16 13 11 13 24 28 28 26 30 52 52 63 84 97 98 100 100 100 100
23 24 38 36 38 27 29 22 17 34 55 63 63 60 57 57 58 56 52 46 39 41 40 40 34 26 17 13 12 13 25 35 37 36 26 32 35 38 57 89 90 95 100 100 100
29 29 27 27 26 24 22 19 19 34 47 54 59 59 59 62 64 61 55 46 44 43 44 43 37 23 17 13 13 15 22 35 49 49 40 41 46 35 35 47 79 89 90 98 100
28 23 22 26 27 25 21 20 21 28 45 50 56 54 64 65 64 63 55 50 51 52 52 46 35 29 19 14 13 13 31 56 61 72 57 51 53 86 45 34 39 55 88 93 100
35 22 20 21 25 26 23 21 23 26 39 50 53 56 64 69 67 59 52 50 49 54 55 48 38 25 18 15 16 20 28 58 61 50 40 59 53 54 56 50 42 29 41 81 91
31 27 20 21 24 27 25 30 37 40 49 54 57 62 67 67 64 53 45 44 49 58 60 50 40 29 20 16 18 25 38 58 57 50 63 93 58 52 44 33 30 34 24 33 71
28 24 20 20 25 32 33 34 43 49 50 53 60 64 70 65 56 40 54 47 54 64 62 53 45 35 21 14 17 23 40 72 74 63 60 55 85 36 28 29 23 16 18 21 40
21 20 19 23 35 42 50 57 53 55 58 64 61 55 56 43 27 33 53 58 59 67 61 54 49 30 17 14 20 31 41 89 100 88 56 51 26 28 29 34 23 15 9 14 24
27 24 20 36 44 53 65 65 66 71 80 72 56 48 44 35 33 31 50 54 78 76 62 57 44 28 18 17 22 33 38 68 98 94 60 67 31 34 34 37 51 37 17 11 13
32 25 23 42 54 67 65 70 74 76 78 61 48 48 43 36 37 41 49 62 80 68 70 67 54 26 16 15 26 51 54 88 100 100 95 57 49 38 42 38 52 72 94 72 26
28 30 38 52 60 67 68 78 81 79 74 50 48 46 41 40 40 51 55 65 82 70 79 68 48 30 18 11 14 32 48 96 100 100 98 68 73 75 54 37 84 73 100 100 100
25 28 43 51 60 71 70 72 76 75 70 57 51 45 43 44 47 42 35 65 65 80 84 62 40 28 19 12 13 12 23 71 100 100 100 100 78 83 73 46 35 93 100 100 100
52 51 55 58 66 77 76 62 57 57 54 51 49 46 44 46 43 40 58 76 82 88 79 67 41 23 19 12 13 15 26 63 95 96 100 100 97 76 72 56 38 50 100 100 100
Wind_Speed
22 23 24 25 25 26 27 29 31 32 30 28 28 28 30 31 31 32 33 35 36 36 38 40 42 44 45 48 52 57 60 61 62 64 66 68 69 70 70 71 74 72 72 67 70
25 26 27 28 28 29 29 29 30 30 29 28 29 28 29 31 32 33 33 34 35 39 41 43 44 47 50 52 56 59 64 65 68 70 71 72 73 73 75 76 79 79 78 72 71
26 26 27 27 27 27 27 28 29 29 30 30 30 30 30 31 32 32 34 35 39 40 44 46 47 49 52 57 61 64 66 65 66 66 67 69 71 77 79 81 82 80 73 73 74
29 29 29 29 29 29 29 30 30 30 30 29 29 31 31 32 34 34 37 41 43 45 47 49 50 53 58 62 66 69 69 69 67 64 66 72 76 84 90 85 71 75 75 72 77
25 27 29 30 30 30 30 30 30 30 29 29 29 30 31 34 36 38 43 44 46 47 48 49 52 56 60 64 68 69 69 71 71 71 68 76 82 79 77 64 55 62 66 69 75
25 25 26 26 28 28 29 29 28 29 29 29 30 31 33 37 40 43 45 46 45 46 47 49 53 57 62 65 68 69 72 70 71 68 71 76 72 49 43 44 49 56 61 64 70
26 26 27 27 28 28 26 26 26 27 27 28 30 32 36 41 43 44 44 43 43 44 47 50 54 59 63 65 67 70 71 70 65 63 61 62 57 52 45 50 56 52 58 62 67
28 29 28 28 29 28 25 23 23 26 28 31 33 36 39 41 42 41 40 41 41 44 47 52 55 58 62 66 70 69 73 69 57 51 48 48 44 43 41 39 49 46 53 56 63
29 30 29 29 29 26 24 25 27 30 33 35 37 39 40 41 37 38 39 40 42 46 49 53 56 59 64 68 70 69 65 56 43 42 41 38 34 30 35 41 45 46 48 52 53
29 31 30 31 28 27 27 29 31 33 34 36 37 38 39 35 36 38 39 41 44 48 52 54 57 60 65 66 64 64 59 50 45 40 36 32 28 25 28 32 30 37 37 41 48
32 31 31 31 29 28 30 32 35 34 34 35 38 38 33 35 36 37 38 42 44 47 50 54 58 61 66 65 62 61 55 50 42 39 33 26 24 24 27 27 29 33 31 32 34
34 34 33 32 30 29 31 33 35 38 39 37 41 33 36 35 36 37 40 43 46 47 51 55 58 60 63 61 57 55 53 44 36 33 29 20 19 24 25 27 29 29 28 28 32
34 36 33 33 31 31 32 34 36 37 38 40 35 36 35 36 38 40 42 46 47 49 52 56 57 60 60 56 54 48 49 40 36 25 21 15 10 20 23 24 23 26 28 27 31
35 34 35 34 34 33 34 35 36 36 37 33 37 36 37 39 40 43 45 47 48 50 52 56 57 57 57 54 54 49 43 37 33 30 23 19 16 18 17 19 21 22 35 31 29
34 33 33 34 35 34 36 36 39 35 40 42 40 40 40 40 42 43 48 47 48 49 54 55 55 57 53 53 51 46 43 37 34 31 30 24 23 20 20 18 18 23 24 35 31
32 32 34 36 35 35 36 38 38 35 40 43 43 43 43 43 43 45 47 48 50 49 53 54 53 55 52 49 47 45 42 38 35 33 31 27 28 25 21 19 18 21 25 29 36
31 31 33 35 36 36 36 36 36 36 39 44 46 46 44 44 43 43 46 48 50 54 54 53 51 53 51 49 46 43 41 37 37 35 33 35 39 29 28 25 22 21 23 27 33
36 35 35 36 35 35 36 38 39 38 39 43 46 48 46 45 44 41 46 48 48 52 53 54 53 52 51 48 46 43 39 35 37 34 37 35 35 29 28 28 28 28 27 25 31
38 37 38 38 39 39 39 40 42 42 42 44 47 49 46 45 43 45 47 48 49 51 52 55 53 51 50 47 43 44 38 34 36 38 40 36 33 31 31 32 32 34 33 31 28
36 39 40 38 40 41 42 42 42 43 44 46 50 47 45 44 45 48 48 51 50 52 53 54 54 49 50 45 40 38 37 34 36 39 39 29 36 32 33 37 38 39 37 38 35
40 41 41 41 42 43 45 44 44 45 48 50 49 46 45 46 47 49 48 52 51 52 54 55 54 53 50 47 40 38 35 34 35 36 37 37 30 26 32 36 38 40 38 43 40
37 39 40 39 42 44 46 50 48 47 51 51 46 45 46 46 51 50 48 51 52 52 53 54 54 51 48 45 39 36 33 35 36 38 34 35 36 27 35 41 41 33 30 39 47
37 39 39 40 44 45 51 53 50 49 49 48 46 47 48 48 53 52 51 52 51 51 53 54 54 52 50 46 42 38 33 35 34 34 31 36 32 31 34 38 35 29 23 24 40
42 41 39 41 44 48 50 49 48 49 47 44 47 49 49 49 52 53 52 53 52 52 53 55 54 49 48 43 41 37 35 33 34 34 31 33 30 24 33 39 26 19 17 19 29
46 44 44 43 43 47 45 46 47 48 44 45 48 50 50 52 53 52 53 52 50 50 53 54 54 51 49 43 42 37 35 32 35 31 33 27 30 28 26 31 24 21 21 19 24
48 48 46 46 45 45 46 44 43 43 43 46 48 49 52 53 54 55 55 54 51 50 52 53 50 50 51 44 42 40 34 31 30 28 31 28 29 27 24 27 29 25 24 17 23
46 50 51 51 49 47 47 45 45 47 47 48 49 50 52 52 55 55 54 52 52 50 52 52 50 50 49 45 42 34 22 23 28 29 31 31 28 25 25 28 30 30 28 19 23
Wind_Direction
296 296 295 295 296 296 295 294 293 294 294 291 289 287 285 290 291 292 294 295 294 293 294 294 294 295 295 295 296 298 297 297 296 292 287 283 277 272 264 260 256 252 252 249 246
291 291 291 292 293 293 293 293 294 296 296 294 294 293 290 291 293 294 295 294 294 296 296 297 297 299 298 299 301 301 300 300 298 297 294 289 284 273 263 258 254 251 245 243 242
290 291 293 295 295 296 297 297 298 298 299 296 294 295 298 298 297 296 295 295 298 298 298 299 300 300 300 300 302 301 301 302 303 300 295 289 283 273 264 256 254 252 248 240 236
291 292 294 296 296 297 297 297 298 298 300 299 297 296 301 301 302 302 301 303 303 302 301 300 300 301 302 302 304 303 307 305 308 307 293 280 273 265 261 256 258 251 245 237 232
309 305 304 302 302 301 299 298 299 299 300 299 299 300 301 301 303 305 305 303 303 303 302 303 304 303 305 306 305 309 310 312 314 311 294 283 274 272 267 264 256 250 244 238 231
319 316 314 312 309 307 305 303 302 301 302 302 302 302 303 302 303 304 303 303 303 302 304 306 307 308 308 309 312 315 318 321 317 304 290 279 275 269 273 249 242 235 229 230 229
319 317 315 312 310 308 306 306 305 305 306 306 306 307 305 305 304 304 305 304 304 306 308 310 311 311 312 315 320 325 326 324 310 296 285 279 273 270 271 254 243 240 231 225 224
314 315 311 313 310 308 307 307 306 307 309 308 307 307 306 305 305 306 304 305 307 309 312 314 315 317 321 323 328 331 329 323 307 295 292 287 285 283 270 263 253 250 236 235 225
314 315 312 312 310 308 305 307 310 310 307 308 309 306 306 306 305 304 306 309 312 315 316 316 320 325 325 332 334 334 327 316 307 295 291 295 303 287 275 265 261 252 246 240 236
316 316 315 313 311 307 306 308 309 310 311 312 311 311 312 310 308 310 313 315 317 318 319 322 327 330 333 336 337 332 325 319 312 303 300 302 310 291 277 269 267 263 256 244 236
315 317 316 315 310 306 310 311 310 309 314 317 315 314 315 313 313 314 317 319 322 324 326 328 332 336 335 337 336 332 327 319 310 307 308 314 307 291 279 257 261 246 245 235 234
313 315 315 316 313 308 306 309 312 316 316 317 318 316 318 317 317 318 321 324 326 328 329 331 335 336 337 336 334 330 324 316 312 312 316 318 309 285 271 261 247 248 240 238 230
313 311 313 316 313 312 314 312 314 318 319 320 324 322 323 322 324 324 327 329 330 330 332 334 335 338 336 334 333 325 324 319 318 316 309 312 299 286 286 276 257 241 224 226 225
316 311 311 314 316 310 315 316 319 320 328 334 332 328 325 326 327 328 328 329 330 331 334 333 336 335 334 334 331 323 319 316 316 313 308 300 269 288 294 291 265 252 236 216 225
317 315 314 314 317 316 314 319 320 322 329 335 331 332 331 331 330 329 329 329 330 334 333 334 334 332 331 331 329 321 314 311 308 309 308 300 286 288 285 292 279 261 242 226 228
320 317 319 318 317 317 318 318 320 323 329 333 334 331 331 333 331 330 329 330 332 334 334 332 332 329 330 330 324 318 310 306 303 301 302 306 301 283 279 272 274 263 253 234 228
325 322 316 318 321 319 318 319 320 321 325 331 334 334 329 329 331 330 330 331 332 333 332 329 329 330 331 328 322 315 309 306 304 303 300 302 302 297 280 276 270 261 249 243 232
323 323 322 321 322 322 320 319 319 321 323 326 329 330 327 329 330 330 330 329 330 330 329 328 331 330 329 327 322 317 309 302 299 300 300 297 300 301 291 281 272 263 256 249 238
314 317 320 322 323 322 321 321 321 322 323 325 326 328 327 329 329 329 330 327 329 329 329 327 331 330 329 325 321 316 307 300 295 297 298 299 301 299 299 288 280 263 256 257 249
308 314 316 318 319 322 324 324 322 323 323 327 327 327 326 328 328 329 330 326 329 328 329 326 328 330 327 323 318 308 303 296 297 300 300 296 302 306 300 293 283 269 254 249 250
306 310 314 317 320 323 324 324 323 324 323 328 328 325 325 327 326 327 328 326 329 328 326 325 327 328 326 324 316 309 297 288 290 295 297 299 295 310 306 306 291 281 256 246 243
305 308 310 314 318 320 321 321 322 323 322 325 325 325 327 329 328 329 327 324 326 325 325 323 324 325 324 321 315 305 297 285 285 292 292 294 298 299 309 314 300 286 270 245 237
301 305 307 311 315 318 319 316 317 321 323 323 323 324 328 328 327 330 327 325 324 323 324 322 323 323 322 320 315 306 300 289 286 287 288 287 301 302 305 317 311 310 275 242 234
300 302 301 305 310 316 320 315 315 319 322 320 323 323 328 329 326 329 326 326 324 322 321 319 321 322 320 315 309 302 300 290 284 287 290 285 297 289 292 309 303 289 275 261 216
300 301 301 304 308 314 316 318 319 319 322 322 324 325 328 326 326 327 325 325 322 320 320 317 320 319 319 316 308 301 299 287 285 286 280 294 289 301 296 305 303 274 277 264 229
300 301 302 304 308 313 316 317 321 322 324 324 325 325 325 324 325 326 325 322 322 320 318 316 319 317 317 315 310 311 310 291 282 281 286 294 298 288 292 296 300 279 274 250 243
299 301 302 304 307 308 310 314 317 320 323 322 323 323 322 322 322 322 322 319 320 319 317 315 316 316 318 315 312 325 298 281 283 282 282 290 290 289 287 289 299 280 275 246 231